Location: Karwodrza
(49.9217°N, 21.0454°E)
Time: 10:45:43
(UTC+01:00)

ISS - Pass Details

Date: 26 January 2019
Orbit: 403 x 411 km, 51.6° (Epoch: 18 February)

Event Time Altitude Azimuth Distance (km) Brightness Sun altitude
Rises 19:14:05 0° 261° (W) 2,335 1.2 -27.9°
Reaches altitude 10° 19:16:11 10° 264° (W) 1,477 -0.1 -28.2°
Enters shadow 19:17:12 19° 266° (W) 1,069 -1.0 -28.4°
